FW2101 Weather Reports


time (UTC)temp
F
wind
direction
speed
knots
gust
knots
rain 1hr
in
rain 24hr
in
rain mn
in
humidity
%
barometer
mb
20260504050512 55 273 2.6 6.1 0.00 0.02 0.00 54 1007.6
20260504050012 55 288 3.5 8.7 0.00 0.02 0.00 53 1007.6
20260504045512 55 260 3.5 8.7 0.00 0.02 0.00 52 1007.6
20260504045010 55 231 3.5 11.3 0.00 0.02 0.00 52 1007.6
20260504044510 55 295 3.5 11.3 0.00 0.02 0.00 52 1007.6
20260504044011 56 273 3.5 10.4 0.00 0.02 0.00 52 1007.6
20260504043512 56 243 4.3 9.6 0.00 0.02 0.00 52 1007.5
20260504043012 55 275 4.3 9.6 0.00 0.02 0.00 52 1007.5
20260504042732 55 286 3.5 8.7 0.00 0.02 0.00 52 1007.6
20260504042458 55 256 4.3 9.6 0.00 0.02 0.00 52 1007.5
20260504041508 55 312 4.3 9.6 0.00 0.02 0.00 53 1007.6
20260504041010 55 301 3.5 7.8 0.00 0.02 0.00 53 1007.6
20260504040505 55 231 2.6 7.8 0.00 0.02 0.00 54 1007.6
20260504040225 55 251 2.6 6.1 0.00 0.02 0.00 54 1007.6
20260504035507 55 236 3.5 7.8 0.00 0.02 0.02 54 1007.6
20260504035006 55 313 3.5 7.8 0.00 0.02 0.02 53 1007.5
20260504034506 56 241 2.6 7.8 0.00 0.02 0.02 53 1007.5
20260504034006 56 293 3.5 7.8 0.00 0.02 0.02 53 1007.5
20260504033506 56 280 3.5 9.6 0.00 0.02 0.02 53 1007.5
20260504033006 56 230 3.5 9.6 0.00 0.02 0.02 53 1007.5
20260504032506 56 283 4.3 11.3 0.00 0.02 0.02 52 1007.5
20260504032230 56 254 4.3 11.3 0.00 0.02 0.02 52 1007.5
20260504031503 56 311 5.2 11.3 0.00 0.02 0.02 52 1007.6
20260504031226 56 286 5.2 11.3 0.00 0.02 0.02 52 1007.5
20260504030500 56 348 4.3 9.6 0.00 0.02 0.02 52 1007.6
20260504030003 56 297 4.3 8.7 0.00 0.02 0.02 53 1007.7
20260504025501 56 257 5.2 9.6 0.00 0.02 0.02 52 1007.7
20260504025001 56 335 5.2 11.3 0.00 0.02 0.02 52 1007.8
20260504024502 55 257 5.2 11.3 0.00 0.02 0.02 53 1007.7
20260504024002 55 290 3.5 9.6 0.00 0.02 0.02 52 1007.9
20260504023503 55 213 2.6 7.8 0.00 0.02 0.02 53 1008.0
20260504023001 55 300 2.6 7.0 0.00 0.02 0.02 54 1008.1
20260504022502 55 263 2.6 7.0 0.00 0.02 0.02 54 1008.1
20260504022002 55 283 2.6 5.2 0.00 0.02 0.02 55 1008.1
20260504021501 55 272 2.6 7.0 0.00 0.02 0.02 54 1008.1
20260504020958 55 278 2.6 7.0 0.00 0.02 0.02 55 1008.0
20260504020723 55 231 2.6 6.1 0.00 0.02 0.02 55 1008.0
20260504015959 55 306 2.6 7.8 0.00 0.02 0.02 56 1007.9
20260504015458 55 239 3.5 7.8 0.00 0.02 0.02 55 1008.0
20260504014958 55 281 4.3 9.6 0.00 0.02 0.02 56 1008.1
20260504014459 55 295 4.3 9.6 0.00 0.02 0.02 55 1008.1
20260504014000 54 338 4.3 7.8 0.00 0.02 0.02 57 1008.1
20260504013500 54 299 4.3 7.8 0.00 0.02 0.02 57 1008.3
20260504013224 54 294 4.3 7.8 0.00 0.02 0.02 57 1008.5
20260504012459 54 279 4.3 7.8 0.00 0.02 0.02 58 1008.5
20260504012001 54 341 3.5 8.7 0.00 0.02 0.02 58 1008.5
20260504011457 54 303 4.3 8.7 0.00 0.02 0.02 58 1008.3
20260504010958 54 7 3.5 8.7 0.00 0.02 0.02 59 1008.4
20260504010456 54 313 4.3 9.6 0.00 0.02 0.02 60 1008.5
20260504005956 54 314 6.1 15.6 0.00 0.02 0.02 59 1008.5
20260504005456 54 339 7.0 15.6 0.00 0.02 0.02 58 1008.7
20260504004954 54 301 6.1 13.0 0.00 0.02 0.02 58 1008.7
20260504004455 54 316 6.1 13.0 0.00 0.02 0.02 58 1008.6
20260504003954 55 317 6.1 11.3 0.00 0.02 0.02 56 1008.5
20260504003454 55 340 5.2 10.4 0.02 0.02 0.02 54 1008.4
20260504002953 55 296 4.3 10.4 0.02 0.02 0.02 54 1008.3
20260504002453 55 351 5.2 11.3 0.02 0.02 0.02 53 1008.3
20260504001952 55 298 7.0 12.2 0.02 0.02 0.02 52 1008.0
20260504001452 55 348 7.0 14.8 0.02 0.02 0.02 52 1008.0
20260504001205 55 287 7.8 14.8 0.02 0.02 0.02 52 1008.0
20260504000446 55 299 8.7 16.5 0.02 0.02 0.02 52 1008.2
20260503235946 56 309 9.6 20.0 0.02 0.02 0.02 51 1008.1
20260503235447 56 296 9.6 20.0 0.02 0.02 0.02 50 1008.3
20260503234948 56 316 8.7 20.0 0.02 0.02 0.02 49 1007.9
20260503234707 56 292 8.7 20.0 0.02 0.02 0.02 49 1007.8
20260503233948 56 300 8.7 15.6 0.02 0.02 0.02 49 1007.8
20260503233447 57 299 8.7 17.4 0.01 0.01 0.01 48 1007.9
20260503233207 57 289 7.8 17.4 0.01 0.01 0.01 47 1007.8
20260503232913 57 301 7.8 15.6 0.00 0.00 0.00 45 1007.5
20260503232536 57 287 7.8 15.6 0.01 0.01 0.01 46 1007.5
20260503231440 57 288 7.8 17.4 0.00 0.00 0.00 44 1007.5
20260503230937 57 349 7.0 17.4 0.00 0.00 0.00 43 1007.6
20260503230439 57 354 5.2 10.4 0.00 0.00 0.00 44 1007.5
20260503225937 57 320 4.3 9.6 0.00 0.00 0.00 44 1007.4
20260503225439 57 269 3.5 7.8 0.00 0.00 0.00 45 1007.4
20260503224938 57 252 4.3 13.0 0.00 0.00 0.00 45 1007.4
20260503224438 57 271 4.3 13.0 0.00 0.00 0.00 44 1007.5
20260503223936 57 348 5.2 11.3 0.00 0.00 0.00 44 1007.5
20260503223436 57 314 5.2 13.0 0.00 0.00 0.00 44 1007.6
20260503222937 57 299 5.2 13.0 0.00 0.00 0.00 43 1007.6
20260503222438 57 22 5.2 10.4 0.00 0.00 0.00 42 1007.7
20260503221937 57 334 5.2 11.3 0.00 0.00 0.00 43 1007.7
20260503221436 57 340 6.1 11.3 0.00 0.00 0.00 42 1007.8
20260503220935 58 353 5.2 12.2 0.00 0.00 0.00 42 1007.8
20260503220437 58 275 7.0 12.2 0.00 0.00 0.00 42 1007.8
20260503215936 58 358 6.1 12.2 0.00 0.00 0.00 42 1007.8
20260503215436 58 320 4.3 10.4 0.00 0.00 0.00 43 1007.8
20260503215155 58 323 4.3 10.4 0.00 0.00 0.00 42 1007.5
20260503214437 58 315 4.3 10.4 0.00 0.00 0.00 42 1007.6
20260503213938 58 312 4.3 10.4 0.00 0.00 0.00 42 1007.6
20260503213437 58 231 5.2 12.2 0.00 0.00 0.00 43 1007.5
20260503212937 58 296 3.5 12.2 0.00 0.00 0.00 41 1007.4
20260503212437 58 5 2.6 9.6 0.00 0.00 0.00 41 1007.3
20260503211937 58 242 4.3 10.4 0.00 0.00 0.00 42 1007.5
20260503211434 57 31 4.3 10.4 0.00 0.00 0.00 41 1007.4
20260503210934 57 235 3.5 11.3 0.00 0.00 0.00 41 1007.5
20260503210434 57 249 5.2 11.3 0.00 0.00 0.00 41 1007.6
20260503205934 57 340 5.2 11.3 0.00 0.00 0.00 41 1007.6
20260503205435 56 300 5.2 11.3 0.00 0.00 0.00 41 1007.8
20260503205201 56 350 5.2 11.3 0.00 0.00 0.00 42 1007.8
20260503204434 56 312 4.3 11.3 0.00 0.00 0.00 42 1007.8
20260503204426 56 280 5.2 11.3 0.00 0.00 0.00 42 1007.7
20260503203700 56 289 6.1 11.3 0.00 0.00 0.00 43 1007.9
20260503203158 56 314 7.0 11.3 0.00 0.00 0.00 43 1007.9
20260503202432 56 277 5.2 11.3 0.00 0.00 0.00 42 1008.1
20260503202201 55 286 5.2 9.6 0.00 0.00 0.00 43 1008.1
20260503201430 55 244 7.0 13.0 0.00 0.00 0.00 44 1008.2
20260503200930 55 305 7.8 13.0 0.00 0.00 0.00 43 1008.3
20260503200428 55 290 7.8 12.2 0.00 0.00 0.00 42 1008.3
20260503195929 55 280 7.8 13.9 0.00 0.00 0.00 42 1008.4
20260503195430 56 313 7.0 13.9 0.00 0.00 0.00 42 1008.4
20260503194931 56 287 7.0 13.9 0.00 0.00 0.00 42 1008.5
20260503194430 55 282 7.0 13.0 0.00 0.00 0.00 42 1008.5
20260503193930 55 272 6.1 13.0 0.00 0.00 0.00 42 1008.7
20260503193429 56 255 5.2 10.4 0.00 0.00 0.00 42 1008.9
20260503193148 55 347 6.1 11.3 0.00 0.00 0.00 43 1008.9
20260503192429 54 297 7.0 11.3 0.00 0.00 0.00 43 1009.1
20260503191927 54 299 5.2 11.3 0.00 0.00 0.00 43 1009.0
20260503191649 53 319 6.1 12.2 0.00 0.00 0.00 43 1009.1
20260503191150 53 300 7.0 14.8 0.00 0.00 0.00 42 1009.3
20260503190647 53 314 7.8 14.8 0.00 0.00 0.00 45 1009.3
20260503185928 53 312 7.8 15.6 0.00 0.00 0.00 46 1009.4
20260503185429 54 260 6.1 15.6 0.00 0.00 0.00 45 1009.5
20260503184927 54 13 5.2 11.3 0.00 0.00 0.00 46 1009.5
20260503184647 54 332 5.2 11.3 0.00 0.00 0.00 47 1009.6
20260503184153 53 264 5.2 11.3 0.00 0.00 0.00 48 1009.6
20260503183429 53 280 5.2 10.4 0.00 0.00 0.00 48 1009.7
20260503182924 53 325 6.1 11.3 0.00 0.00 0.00 47 1009.6
20260503182424 54 356 7.0 13.0 0.00 0.00 0.00 48 1009.7
20260503182151 54 302 7.0 13.9 0.00 0.00 0.00 47 1009.6
20260503181643 54 250 6.1 13.9 0.00 0.00 0.00 48 1009.6
20260503180923 53 276 5.2 11.3 0.00 0.00 0.00 48 1009.6
20260503180423 53 20 5.2 10.4 0.00 0.00 0.00 48 1009.7
20260503180149 53 352 5.2 12.2 0.00 0.00 0.00 48 1009.8
20260503175419 53 328 7.0 12.2 0.00 0.00 0.00 47 1009.8
20260503174919 53 274 7.0 13.0 0.00 0.00 0.00 48 1009.8
20260503174419 53 244 6.1 13.0 0.00 0.00 0.00 48 1010.0
20260503173919 53 265 6.1 13.0 0.00 0.00 0.00 49 1009.9
20260503173419 53 303 6.1 13.0 0.00 0.00 0.00 48 1010.0
20260503172917 53 343 5.2 13.0 0.00 0.00 0.00 48 1010.1
20260503172418 53 324 5.2 11.3 0.00 0.00 0.00 47 1010.1
20260503171918 53 284 4.3 10.4 0.00 0.00 0.00 47 1010.0
20260503171858 53 282 5.2 10.4 0.00 0.00 0.00 46 1010.0
20260503170918 52 262 6.1 10.4 0.00 0.00 0.00 47 1010.1
20260503170418 52 310 6.1 11.3 0.00 0.00 0.00 47 1010.1
20260503170146 52 294 5.2 11.3 0.00 0.00 0.00 47 1010.2
20260503150407 47 200 4.3 8.7 0.00 0.00 0.00 50 1011.8
20260503131400 43 285 3.5 7.8 0.00 0.00 0.00 53 1012.5
20260503130900 44 238 2.6 6.1 0.00 0.00 0.00 53 1012.6
20260503130400 44 350 1.7 6.1 0.00 0.00 0.00 53 1012.7
20260503130120 43 327 2.6 7.0 0.00 0.00 0.00 55 1012.7
20260503110356 37 284 2.6 7.0 0.00 0.00 0.00 84 1012.4
20260503090350 35 0 0.0 1.7 0.00 0.00 0.00 87 1012.1
20260503081612 37 316 0.9 2.6 0.00 0.00 0.00 85 1012.3
20260503080848 38 317 0.9 4.3 0.00 0.00 0.00 84 1012.3
20260503080348 38 310 1.7 4.3 0.00 0.00 0.00 83 1012.3
20260503072844 39 305 3.5 7.0 0.00 0.00 0.00 81 1012.2
20260503072603 39 299 3.5 6.1 0.00 0.00 0.00 80 1012.2
20260503071845 40 299 3.5 7.0 0.00 0.00 0.00 80 1012.2
20260503071608 40 306 3.5 7.0 0.00 0.00 0.00 80 1012.2
20260503070845 40 293 2.6 6.1 0.00 0.00 0.00 80 1012.2
20260503070346 40 351 2.6 5.2 0.00 0.00 0.00 79 1012.2